Weather History for KTTS - March, 2013

Change the Weather History Date:

Wednesday, March 6, 2013

  Actual Average Record
Temperature  
Mean Temperature 59 °F -  
Max Temperature 68 °F 72 °F 87 °F (2003)
Min Temperature 49 °F 54 °F 44 °F (2007)
Degree Days  
Heating Degree Days 6    
Growing Degree Days 9 (Base 50)    
Moisture  
Dew Point 42 °F    
Average Humidity 59    
Maximum Humidity 95    
Minimum Humidity 18    
Precipitation  
Precipitation 0.00 in - - ()
Sea Level Pressure  
Sea Level Pressure 30.01 in    
Wind  
Wind Speed 12 mph (WNW)    
Max Wind Speed 23 mph    
Max Gust Speed 31 mph    
Visibility 10 miles    
Events Rain    
Averages and records for this station are not official NWS values.
T = Trace of Precipitation, MM = Missing Value Source: NWS Daily Summary

Daily Weather History Graph

Daily Weather History Graph

Search for Another Location

Airport or City:

Trip Planner

Search our weather history database for the weather conditions in past years. The results will help you decide how hot, cold, wet, or windy it might be!

Date:

Astronomy

Mar. 06, 2013 Rise Set
Actual Time 6:42 AM EST 6:26 PM EST
Civil Twilight 6:18 AM EST 6:49 PM EST
Nautical Twilight 5:51 AM EST 7:17 PM EST
Astronomical Twilight 5:23 AM EST 7:44 PM EST
Moon 2:29 AM EST (3/6) 1:25 PM EST (3/6)
Length of Visible Light 12h 31m
Length of Day
11h 43m
Waning Crescent, 30% of the Moon is Illuminated
Mar 6
Waning Crescent
Mar 11
New
Mar 19
First Quarter
Mar 27
Full
Apr 3
Last Quarter

Hourly Weather History & Observations

Time (EST) Temp. Dew Point Humidity Pressure Visibility Wind Dir Wind Speed Gust Speed Precip Events Conditions
12:55 AM 61.2 °F 55.0 °F 80% 30.01 in 10.0 mi SW 11.5 mph - N/A   Mostly Cloudy
1:55 AM 60.6 °F 56.7 °F 87% 29.98 in 10.0 mi SW 10.4 mph - N/A   Clear
2:55 AM 60.3 °F 57.4 °F 90% 29.96 in 10.0 mi SW 8.1 mph - N/A   Clear
3:55 AM 60.1 °F 57.9 °F 93% 29.95 in 10.0 mi SW 9.2 mph - N/A   Partly Cloudy
4:55 AM 59.9 °F 58.5 °F 95% 29.95 in 10.0 mi SW 9.2 mph - N/A   Mostly Cloudy
5:19 AM 60.8 °F 59.0 °F 94% 29.95 in 10.0 mi SW 9.2 mph - N/A   Overcast
5:41 AM 62.6 °F 59.0 °F 88% 29.96 in 10.0 mi WSW 9.2 mph - N/A Rain Light Rain
5:55 AM 62.2 °F 59.9 °F 92% 29.96 in 10.0 mi WSW 10.4 mph - 0.00 in   Light Drizzle
6:02 AM 62.6 °F 60.8 °F 94% 29.97 in 10.0 mi WSW 10.4 mph - N/A   Overcast
6:23 AM 62.6 °F 60.8 °F 94% 29.97 in 10.0 mi WSW 9.2 mph - N/A   Overcast
6:55 AM 62.8 °F 60.8 °F 93% 29.99 in 10.0 mi West 8.1 mph - 0.00 in   Mostly Cloudy
7:28 AM 62.6 °F 60.8 °F 94% 30.01 in 10.0 mi NW 18.4 mph 25.3 mph N/A   Overcast
7:55 AM 59.4 °F 47.8 °F 66% 30.04 in 10.0 mi NW 18.4 mph 25.3 mph N/A   Overcast
8:06 AM 59.0 °F 48.2 °F 67% 30.05 in 10.0 mi NW 20.7 mph 27.6 mph N/A   Overcast
8:55 AM 56.3 °F 33.6 °F 42% 30.07 in 10.0 mi NW 20.7 mph - N/A   Partly Cloudy
9:55 AM 57.0 °F 34.5 °F 43% 30.08 in 10.0 mi NW 16.1 mph - N/A   Clear
10:55 AM 58.5 °F 28.4 °F 32% 30.07 in 10.0 mi WNW 20.7 mph - N/A   Clear
11:55 AM 62.2 °F 26.6 °F 26% 30.03 in 10.0 mi WNW 20.7 mph 28.8 mph N/A   Clear
12:55 PM 65.8 °F 25.0 °F 21% 30.00 in 10.0 mi WNW 23.0 mph 31.1 mph N/A   Clear
1:55 PM 67.3 °F 26.8 °F 22% 29.98 in 10.0 mi West 15.0 mph 24.2 mph N/A   Clear
2:55 PM 68.5 °F 23.7 °F 18% 29.96 in 10.0 mi WNW 16.1 mph 23.0 mph N/A   Clear
3:55 PM 68.5 °F 23.2 °F 18% 29.95 in 10.0 mi WNW 18.4 mph 23.0 mph N/A   Clear
4:55 PM 67.6 °F 25.5 °F 20% 29.95 in 10.0 mi WNW 15.0 mph 25.3 mph N/A   Clear
5:55 PM 64.2 °F 25.2 °F 23% 29.97 in 10.0 mi NW 13.8 mph 24.2 mph N/A   Clear
6:55 PM 59.0 °F 25.3 °F 28% 30.01 in 10.0 mi NW 8.1 mph - N/A   Clear
7:55 PM 52.9 °F 30.0 °F 42% 30.04 in 10.0 mi NNW 8.1 mph - N/A   Clear
8:55 PM 53.8 °F 36.0 °F 51% 30.07 in 10.0 mi WNW 8.1 mph - N/A   Clear
9:55 PM 52.0 °F 36.5 °F 56% 30.11 in 10.0 mi WNW 8.1 mph - N/A   Clear
10:55 PM 50.7 °F 31.8 °F 48% 30.12 in 10.0 mi NNW 12.7 mph - N/A   Clear
11:55 PM 49.8 °F 30.2 °F 47% 30.13 in 10.0 mi NNW 12.7 mph 24.2 mph N/A   Clear